sat.trackr.live / text

‹ back to catalog

STARLINK-5474

NORAD 55665 · 2023-021AP

PAYLOAD ACTIVE UNKNOWN

§ Identity

Operator
Country
US
Launch date
2023-02-17
Launch site
AFWTR
Launch vehicle
Mass (kg)
RCS (m²)

Purposes: comms

External: N2YO · Heavens-Above · Gunter

§ Orbital elements

Epoch: 2026-09-20T22:00:03.000096Z

Period
95.63 min
Inclination
70.0011°
Eccentricity
0.0005408
Mean motion
15.05865287 rev/d
Perigee alt
545.1 km
Apogee alt
552.6 km
Semi-major
6,927.0 km
B*
6.2408e-4
RAAN
32.1135°
Arg perigee
274.6695°
Mean anomaly
329.6186°
Rev number
576

§ Raw data

STARLINK-54741 55665U 23021AP  26263.91670139  .00008996  00000+0  62408-3 0  99942 55665  70.0011  32.1135 0005408 274.6695 329.6186 15.05865287  5769

JSON: /api/v1/satellites/55665 · /tle

For live sub-satellite position, see the globe view (requires WebGL).

§ Visibility from observer

Set your observer location to see the next 7 days of passes ≥ 10°. The values pass through the URL so the page stays shareable.

No JS? Fill the form by hand. The geolocation button needs JavaScript.